Location: Karwodrza
(49.9217°N, 21.0454°E)
Time: 03:09:17
(UTC+01:00)

Envisat - Visible Passes

Search period start: 19 March 2019 00:00
Search period end: 29 March 2019 00:00
Orbit: 764 x 766 km, 98.2° (Epoch: 18 March)

Date Brightness Start Highest point End Pass type
(mag) Time Alt. Az. Time Alt. Az. Time Alt. Az.
19 Mar 3.3 18:12:02 10° S 18:17:06 75° WSW 18:22:13 10° NNW visible
19 Mar 6.2 19:55:29 10° WSW 19:57:02 11° W 19:58:34 10° WNW visible
20 Mar 5.5 19:15:46 10° SW 19:19:46 23° W 19:23:48 10° NW visible
21 Mar 4.3 18:37:51 10° S 18:42:44 45° W 18:47:37 10° NNW visible
22 Mar 6.0 19:42:59 10° WSW 19:45:38 14° W 19:48:18 10° NW visible
23 Mar 5.2 19:04:06 10° SSW 19:08:26 28° W 19:12:49 10° NW visible
24 Mar 3.9 18:26:28 10° S 18:31:27 56° W 18:36:29 10° NNW visible
25 Mar 5.8 19:30:56 10° SW 19:34:16 17° W 19:37:38 10° NW visible
26 Mar 4.8 18:52:32 10° SSW 18:57:08 34° W 19:01:46 10° NNW visible
27 Mar 6.4 19:59:37 10° W 20:00:12 10° W 20:00:47 10° WNW visible
28 Mar 5.6 19:19:04 10° SW 19:22:55 21° W 19:26:47 10° NW visible
